Regional Weather Roundup
Issued by NWS

Home | Current Version | Previous Version | Text Only | Print | Product List | Glossary On
Versions: 1 2 3 4 5 6 7 8 9 10 11 12 13 14 15 16 17 18 19 20 21 22 23 24 25 26 27 28 29 30 31 32 33 34 35 36 37 38 39 40 41 42 43 44 45 46 47 48 49 50
000
ASUS43 KMKX 020000
RWRWI

WISCONSIN REGIONAL WEATHER ROUNDUP
NATIONAL WEATHER SERVICE MILWAUKEE/SULLIVAN WI
700 PM CDT SAT AUG 01 2015

NOTE: "FAIR" INDICATES FEW OR NO CLOUDS BELOW 12,000 FEET WITH NO
SIGNIFICANT WEATHER AND/OR OBSTRUCTIONS TO VISIBILITY.

WIZ001-002-006>008-014>016-023>028-020100-
NORTHWEST WISCONSIN

CITY           SKY/WX    TMP DP  RH WIND       PRES   REMARKS
SUPERIOR ARPT  PTSUNNY   78  58  50 SW10      29.77F
ASHLAND        SUNNY     78  55  44 SW12G26   29.78F
6HR MIN TEMP:  78; 6HR MAX TEMP:  82;

HAYWARD        MOSUNNY   78  54  43 W5        29.83F
6HR MIN TEMP:  78; 6HR MAX TEMP:  82;

SIREN          MOSUNNY   80  55  42 S6        29.83F HX  80
CUMBERLAND     MOSUNNY   75  59  57 CALM      29.84F
RICE LAKE      MOSUNNY   78  57  49 SW3       29.86F
CHETEK         MOSUNNY   79  59  50 MISG      29.84F HX  80
LADYSMITH      MOSUNNY   78  54  44 SW6       29.87F
EAU CLAIRE     SUNNY     80  60  50 SW8       29.82F HX  81
6HR MIN TEMP:  80; 6HR MAX TEMP:  84;

MENOMONIE      MOSUNNY   80  60  49 S6        29.84F HX  81
NEW RICHMOND   MOSUNNY   81  59  47 SW8       29.83F HX  81
OSCEOLA        MOSUNNY   81  59  47 S3        29.84F HX  81
$$

WIZ003>005-009-010-017-018-020100-
NORTH CENTRAL WISCONSIN

CITY           SKY/WX    TMP DP  RH WIND       PRES   REMARKS
MANITOWISH WTR MOSUNNY   75  53  45 W9G17     29.84F
ARBOR VITAE    SUNNY     77  53  42 W9        29.85F
WOODRUFF       SUNNY     77  53  42 W9        29.85F
RHINELANDER    SUNNY     77  52  41 W12       29.86F
6HR MIN TEMP:  74; 6HR MAX TEMP:  80;

EAGLE RIVER    MOSUNNY   74  47  37 W14G22    29.84F
LAND O LAKES   MOSUNNY   75  49  38 W5        29.84F
PHILLIPS       MOSUNNY   75  56  50 W9        29.85F
6HR MIN TEMP:  75; 6HR MAX TEMP:  78;

TOMAHAWK       SUNNY     76  53  45 W9        29.87F
MEDFORD        MOSUNNY   75  57  54 W5        29.88F
MERRILL        NOT AVBL
$$

WIZ029-030-035-036-043>047-020100-
CENTRAL WISCONSIN

CITY           SKY/WX    TMP DP  RH WIND       PRES   REMARKS
WAUSAU         SUNNY     79  53  40 W12       29.85F
6HR MIN TEMP:  79; 6HR MAX TEMP:  83;

MOSINEE        SUNNY     77  52  41 W9        29.88F
MARSHFIELD     SUNNY     76  54  46 W6        29.87F
6HR MIN TEMP:  76; 6HR MAX TEMP:  82;

STEVENS POINT  SUNNY     78  53  41 W5        29.87F
WAUPACA        SUNNY     83  50  31 W9        29.86F HX  81
WAUTOMA        NOT AVBL
WISC RAPIDS    SUNNY     80  52  37 NW8       29.87F HX  80
6HR MIN TEMP:  80; 6HR MAX TEMP:  85;

CAMP DOUGLAS   NOT AVBL
$$

WIZ011>013-019>022-031-037>040-048>050-020100-
NORTHEAST WISCONSIN

CITY           SKY/WX    TMP DP  RH WIND       PRES   REMARKS
ANTIGO         MOSUNNY   76  53  45 W7        29.87F
SHAWANO        MOSUNNY   81  50  34 W8G16     29.85F HX  80
OCONTO         MOSUNNY   81  52  36 W7        29.82F HX  80
STURGEON BAY   SUNNY     79  52  38 W8        29.85F
6HR MIN TEMP:  77; 6HR MAX TEMP:  81;

GREEN BAY      SUNNY     79  55  43 W7        29.84F
6HR MIN TEMP:  79; 6HR MAX TEMP:  83;

MANITOWOC      NOT AVBL
APPLETON       MOSUNNY   79  48  34 W7        29.86F
CLINTONVILLE   SUNNY     81  46  30 W8        29.84F HX  80
OSHKOSH        SUNNY     81  53  37 W7        29.85F HX  80
6HR MIN TEMP:  80; 6HR MAX TEMP:  84;

$$

WIZ032>034-041-042-053>061-020100-
SOUTHWEST WISCONSIN

CITY           SKY/WX    TMP DP  RH WIND       PRES   REMARKS
LA CROSSE      SUNNY     85  63  47 W6        29.85F HX  86
6HR MIN TEMP:  80; 6HR MAX TEMP:  87;

SPARTA         SUNNY     83  57  40 W6        29.88F HX  82
VIROQUA        SUNNY     81  64  55 CALM      29.90F HX  83
BOSCOBEL       SUNNY     86  65  49 W3        29.87F HX  88
6HR MIN TEMP:  86; 6HR MAX TEMP:  90;

PRAIRIE DU CHI MOSUNNY   86  59  39 W5        29.87F HX  85
PLATTEVILLE    PTSUNNY   83  65  54 W6        29.91F HX  85
$$

WIZ056-057-062-063-064-067-068-020100-
SOUTH CENTRAL WISCONSIN

CITY           SKY/WX    TMP DP  RH WIND       PRES   REMARKS
REEDSBURG      SUNNY     83  62  48 W8        29.88F HX  83
BARABOO/DELLS  SUNNY     83  54  36 W8        29.88F HX  82
LONE ROCK      NOT AVBL
MINERAL POINT  SUNNY     84  59  42 W7        29.91F HX  84
MADISON        MOSUNNY   83  58  42 NW5       29.87F HX  83
6HR MIN TEMP:  80; 6HR MAX TEMP:  86;

MIDDLETON      SUNNY     84  55  36 W8        29.89F HX  82
WATERTOWN      SUNNY     82  61  49 W5        29.87F HX  82
MONROE         SUNNY     82  61  47 W13       29.90F HX  83
JANESVILLE     MOSUNNY   84  57  39 W7        29.88F HX  83
$$

WIZ051-052-058>065-066-070>072-020100-
SOUTHEAST WISCONSIN

CITY           SKY/WX    TMP DP  RH WIND       PRES   REMARKS
MILWAUKEE      MOSUNNY   83  57  41 NW8       29.87F HX  82
6HR MIN TEMP:  78; 6HR MAX TEMP:  85;

WAUKESHA       SUNNY     81  57  44 NW3       29.89F HX  81
MILWAUKEE/TIMM SUNNY     81  55  41 NW6       29.88F HX  80
RACINE         SUNNY     77  58  51 S10       29.89F
6HR MIN TEMP:  77; 6HR MAX TEMP:  85;

BURLINGTON     SUNNY     82  58  44 W7        29.88F HX  82
KENOSHA        SUNNY     79  64  60 E7        29.88F HX  81
6HR MIN TEMP:  79; 6HR MAX TEMP:  85;

FOND DU LAC    SUNNY     82  55  39 W6        29.86F HX  81
6HR MIN TEMP:  81; 6HR MAX TEMP:  84;

SHEBOYGAN      SUNNY     80  55  42 NW3       29.85F HX  80
6HR MIN TEMP:  80; 6HR MAX TEMP:  83;

WEST BEND      SUNNY     81  52  36 W6        29.88S HX  80
JUNEAU         SUNNY     80  58  47 W5        29.89F HX  80
$$

LSZ147-162-020100-
LAKE SUPERIOR

STATION/POSITION TIME  TEMP    WIND        PRES    WAVE
                       AIR SEA DIR/SP/G            HT/PER
                 (UTC) (F)     (DEG/KT/KT) (MB)    (FT/S)
W MID LAKE BUOY  2250   60 54  200/ 10/ 10 1007.7F   1/ 3
DEVILS ISLAND    2300   73     230/ 15/ 18 1007.7F
PORT WING        2300   79     250/ 11/ 14 1008.5F
SAXON HARBOR     2340   81                 1008.1F
$$

LMZ867-665-643>646-020100-
LAKE MICHIGAN

STATION/POSITION TIME  TEMP    WIND        PRES    WAVE
                       AIR SEA DIR/SP/G            HT/PER
                 (UTC) (F)     (DEG/KT/KT) (MB)    (FT/S)
CHAMBERS ISLAND  2300   79     250/ 10/ 18 1009.5F
S GREEN BAY BUOY 2200   74 72  250/ 10/ 12 1012.2
N MID LAKE BUOY  2250   71 69  200/ 14/ 14 1009.1F   1/ 3
NORTHPORT PIER   2300   80     250/  4/  9 1009.5
SISTER BAY       2200   80     260/  8/  9   N/A
ALGOMA LAKESHORE 2342          320/  7/ 10   N/A
KEWAUNEE LAKESHO 2300   80     280/  8/ 12 1010.3F
SHEBOYGAN LAKESH 2300   81     300/ 10/ 12 1011.3F
PORT WASHINGTON  2300   84     270/ 10/ 12 1011.9F
ATWATER BUOY     2300   77 65  310/  6/  8 1013.3F
MILWAUKEE LAKESH 2300   82     300/  8/ 10   N/A
KENOSHA   LAKESH 2300   75     140/ 10/ 11 1011.5F
$$

TC  - TEMPERATURE IN CELSIUS
VSB - VISIBILITY IN STATUTE MILES
WCI - WIND CHILL INDEX
HX  - HEAT INDEX



USA.gov is the U.S. government's official web portal to all federal, state and local government web resources and services.